• In Russia
  • List of Countries
  • For 7 days
  • Water Temperature
  • Satellite Maps
  • Weather Map
  • Weather Widgets
  • user-avatar
    Login

    Hourly Weather Ghioltosu

    Today, 21 February, Thursday

    Time Temperature Precipitation Wind Pressure Humidity
    00:00 +7°C° 0 mm 3 mps 762 mmHg 76%
    01:00 +5°C° 0 mm 3 mps 762 mmHg 77%
    02:00 +6°C° 0 mm 2 mps 762 mmHg 79%
    03:00 +5°C° 0 mm 2 mps 762 mmHg 80%
    04:00 +4°C° 0 mm 3 mps 762 mmHg 81%
    05:00 +4°C° 0 mm 3 mps 763 mmHg 83%
    06:00 +4°C° 0 mm 3 mps 763 mmHg 80%
    07:00 +4°C° 0 mm 3 mps 763 mmHg 77%
    08:00 +4°C° 0 mm 4 mps 763 mmHg 71%
    09:00 +5°C° 0 mm 5 mps 763 mmHg 63%
    10:00 +7°C° 0 mm 6 mps 763 mmHg 55%
    11:00 +8°C° 0 mm 7 mps 764 mmHg 47%
    12:00 +8°C° 0 mm 7 mps 763 mmHg 47%
    13:00 +9°C° 0 mm 7 mps 763 mmHg 46%
    14:00 +9°C° 0 mm 7 mps 763 mmHg 45%
    15:00 +9°C° 0 mm 6 mps 763 mmHg 47%
    16:00 +8°C° 0 mm 5 mps 763 mmHg 49%
    17:00 +8°C° 0 mm 4 mps 763 mmHg 51%
    18:00 +8°C° 0 mm 3 mps 763 mmHg 55%
    19:00 +8°C° 0 mm 3 mps 763 mmHg 58%
    20:00 +7°C° 0 mm 2 mps 763 mmHg 62%
    21:00 +7°C° 0 mm 2 mps 763 mmHg 63%
    22:00 +6°C° 0 mm 2 mps 763 mmHg 65%
    23:00 +6°C° 0 mm 2 mps 763 mmHg 66%

    Tomorrow, 22 February, Friday

    Time Temperature Precipitation Wind Pressure Humidity
    00:00 +5°C° 0 mm 2 mps 762 mmHg 67%
    01:00 +5°C° 0 mm 2 mps 762 mmHg 67%
    02:00 +4°C° 0 mm 3 mps 761 mmHg 68%
    03:00 +5°C° 0 mm 2 mps 761 mmHg 68%
    04:00 +4°C° 0 mm 2 mps 760 mmHg 69%
    05:00 +4°C° 0 mm 2 mps 760 mmHg 69%
    06:00 +4°C° 0.1 mm 2 mps 759 mmHg 69%
    07:00 +4°C° 0.1 mm 2 mps 759 mmHg 69%
    08:00 +5°C° 0.1 mm 2 mps 758 mmHg 70%
    09:00 +5°C° 0.3 mm 2 mps 758 mmHg 69%
    10:00 +6°C° 0.3 mm 2 mps 758 mmHg 68%
    11:00 +6°C° 0.3 mm 2 mps 758 mmHg 67%
    12:00 +4°C° 0.5 mm 4 mps 759 mmHg 71%
    13:00 +2°C° 0.5 mm 7 mps 759 mmHg 76%
    14:00 0°C° 0.5 mm 9 mps 759 mmHg 81%
    15:00 -1°C° 0.3 mm 9 mps 760 mmHg 79%
    16:00 -3°C° 0.3 mm 9 mps 761 mmHg 77%
    17:00 -4°C° 0.3 mm 9 mps 762 mmHg 75%
    18:00 -5°C° 0.1 mm 9 mps 763 mmHg 71%
    19:00 -6°C° 0.1 mm 9 mps 764 mmHg 66%
    20:00 -7°C° 0.1 mm 10 mps 766 mmHg 62%
    21:00 -8°C° 0 mm 9 mps 766 mmHg 59%
    22:00 -9°C° 0 mm 9 mps 767 mmHg 57%
    23:00 -9°C° 0 mm 9 mps 767 mmHg 54%

    Day after tomorrow, 23 February, Saturday

    Time Temperature Precipitation Wind Pressure Humidity
    00:00 -9°C° 0 mm 9 mps 767 mmHg 55%
    01:00 -8°C° 0 mm 8 mps 768 mmHg 55%
    02:00 -10°C° 0 mm 8 mps 768 mmHg 56%
    03:00 -10°C° 0 mm 8 mps 768 mmHg 55%
    04:00 -10°C° 0 mm 8 mps 768 mmHg 55%
    05:00 -10°C° 0 mm 8 mps 769 mmHg 54%
    06:00 -10°C° 0 mm 8 mps 769 mmHg 55%
    07:00 -10°C° 0 mm 8 mps 770 mmHg 56%
    08:00 -10°C° 0 mm 9 mps 770 mmHg 58%
    09:00 -9°C° 0 mm 9 mps 771 mmHg 56%
    10:00 -9°C° 0 mm 9 mps 771 mmHg 55%
    11:00 -7°C° 0 mm 8 mps 771 mmHg 54%
    12:00 -7°C° 0 mm 8 mps 771 mmHg 54%
    13:00 -7°C° 0 mm 8 mps 771 mmHg 54%
    14:00 -6°C° 0 mm 8 mps 771 mmHg 55%
    15:00 -7°C° 0 mm 8 mps 772 mmHg 58%
    16:00 -7°C° 0 mm 8 mps 772 mmHg 60%
    17:00 -7°C° 0 mm 8 mps 772 mmHg 63%
    18:00 -7°C° 0.1 mm 7 mps 772 mmHg 65%
    19:00 -8°C° 0.1 mm 7 mps 773 mmHg 67%
    20:00 -8°C° 0.1 mm 7 mps 773 mmHg 70%
    21:00 -8°C° 0.1 mm 6 mps 773 mmHg 70%
    22:00 -8°C° 0.1 mm 6 mps 773 mmHg 71%
    23:00 -8°C° 0.1 mm 6 mps 774 mmHg 72%

    24 February, Sunday

    Time Temperature Precipitation Wind Pressure Humidity
    00:00 -8°C° 0.1 mm 6 mps 774 mmHg 72%
    01:00 -8°C° 0.1 mm 6 mps 774 mmHg 72%
    02:00 -8°C° 0.1 mm 6 mps 773 mmHg 71%
    03:00 -8°C° 0.1 mm 5 mps 773 mmHg 71%
    04:00 -8°C° 0.1 mm 5 mps 773 mmHg 71%
    05:00 -8°C° 0.1 mm 5 mps 773 mmHg 71%
    06:00 -8°C° 0 mm 5 mps 774 mmHg 71%
    07:00 -8°C° 0 mm 5 mps 774 mmHg 70%
    08:00 -8°C° 0 mm 5 mps 774 mmHg 70%
    09:00 -7°C° 0 mm 5 mps 774 mmHg 67%
    10:00 -7°C° 0 mm 5 mps 774 mmHg 65%
    11:00 -6°C° 0 mm 5 mps 774 mmHg 62%
    12:00 -6°C° 0 mm 5 mps 774 mmHg 61%
    13:00 -5°C° 0 mm 5 mps 774 mmHg 60%
    14:00 -5°C° 0 mm 5 mps 773 mmHg 59%
    15:00 -4°C° 0 mm 4 mps 773 mmHg 59%
    16:00 -4°C° 0 mm 4 mps 773 mmHg 60%
    17:00 -4°C° 0 mm 4 mps 773 mmHg 60%
    18:00 -4°C° 0 mm 3 mps 774 mmHg 64%
    19:00 -4°C° 0 mm 2 mps 774 mmHg 68%
    20:00 -4°C° 0 mm 2 mps 775 mmHg 71%
    21:00 -4°C° 0 mm 2 mps 775 mmHg 71%
    22:00 -4°C° 0 mm 2 mps 775 mmHg 71%
    23:00 -4°C° 0 mm 2 mps 775 mmHg 71%

    25 February, Monday

    Time Temperature Precipitation Wind Pressure Humidity
    00:00 -4°C° 0 mm 2 mps 775 mmHg 70%
    01:00 -4°C° 0 mm 2 mps 775 mmHg 70%
    02:00 -4°C° 0 mm 2 mps 775 mmHg 70%
    03:00 -4°C° 0 mm 2 mps 775 mmHg 70%
    04:00 -4°C° 0 mm 2 mps 774 mmHg 70%
    05:00 -5°C° 0 mm 2 mps 774 mmHg 71%
    06:00 -4°C° 0 mm 2 mps 774 mmHg 69%
    07:00 -4°C° 0 mm 2 mps 774 mmHg 68%
    08:00 -4°C° 0 mm 2 mps 774 mmHg 66%
    09:00 -2°C° 0 mm 2 mps 773 mmHg 60%
    10:00 -1°C° 0 mm 3 mps 773 mmHg 53%
    11:00 +1°C° 0 mm 3 mps 773 mmHg 46%
    12:00 +2°C° 0 mm 3 mps 772 mmHg 44%
    13:00 +3°C° 0 mm 3 mps 772 mmHg 42%
    14:00 +4°C° 0 mm 3 mps 771 mmHg 39%
    15:00 +4°C° 0 mm 3 mps 770 mmHg 44%
    16:00 +3°C° 0 mm 3 mps 770 mmHg 49%
    17:00 +4°C° 0 mm 2 mps 769 mmHg 54%
    18:00 +3°C° 0 mm 2 mps 769 mmHg 56%
    19:00 +2°C° 0 mm 2 mps 769 mmHg 58%
    20:00 +1°C° 0 mm 2 mps 768 mmHg 60%
    21:00 0°C° 0 mm 3 mps 768 mmHg 65%
    22:00 0°C° 0 mm 4 mps 768 mmHg 69%
    23:00 0°C° 0 mm 5 mps 768 mmHg 74%

    26 February, Tuesday

    Time Temperature Precipitation Wind Pressure Humidity
    00:00 0°C° 0 mm 5 mps 767 mmHg 78%
    01:00 -1°C° 0 mm 6 mps 767 mmHg 81%
    02:00 -1°C° 0 mm 7 mps 766 mmHg 85%
    03:00 -1°C° 0 mm 7 mps 766 mmHg 86%
    04:00 -1°C° 0 mm 7 mps 765 mmHg 86%
    05:00 -2°C° 0 mm 8 mps 765 mmHg 87%
    06:00 -2°C° 0 mm 8 mps 765 mmHg 86%
    07:00 -2°C° 0 mm 7 mps 765 mmHg 85%
    08:00 -2°C° 0 mm 7 mps 765 mmHg 84%
    09:00 0°C° 0 mm 7 mps 764 mmHg 78%
    10:00 +2°C° 0 mm 7 mps 763 mmHg 71%
    11:00 +4°C° 0 mm 7 mps 763 mmHg 64%
    12:00 +4°C° 0 mm 6 mps 762 mmHg 61%
    13:00 +5°C° 0 mm 6 mps 761 mmHg 58%
    14:00 +7°C° 0 mm 5 mps 760 mmHg 55%
    15:00 +7°C° 0 mm 5 mps 759 mmHg 55%
    16:00 +7°C° 0 mm 4 mps 758 mmHg 55%
    17:00 +7°C° 0 mm 4 mps 757 mmHg 55%
    18:00 +5°C° 0 mm 4 mps 757 mmHg 59%
    19:00 +4°C° 0 mm 4 mps 756 mmHg 63%
    20:00 +3°C° 0 mm 4 mps 756 mmHg 67%
    21:00 +3°C° 0 mm 4 mps 755 mmHg 69%
    22:00 +2°C° 0 mm 5 mps 754 mmHg 71%
    23:00 +3°C° 0 mm 5 mps 754 mmHg 73%
    Show more